Weather History for Rockingham, NC

Change the Weather History Date:

Tuesday, January 15, 2013

  Actual Average (KHFF) Record (KHFF)
Temperature  
Mean Temperature 58 °F -  
Max Temperature 65 °F 52 °F 64 °F (2013)
Min Temperature 50 °F 30 °F 19 °F (2003)
Degree Days  
Heating Degree Days 8    
Growing Degree Days 8 (Base 50)    
Moisture  
Dew Point 54 °F    
Average Humidity 90    
Maximum Humidity 100    
Minimum Humidity 75    
Precipitation  
Precipitation 0.00 in - - ()
Sea Level Pressure  
Sea Level Pressure 30.12 in    
Wind  
Wind Speed 5 mph (NE)    
Max Wind Speed 10 mph    
Max Gust Speed -    
Visibility 7 miles    
Events Fog , Rain    
Averages and records for this station are not official NWS values.
T = Trace of Precipitation, MM = Missing Value Source: NWS Daily Summary

Daily Weather History Graph

Daily Weather History Graph

Search for Another Location

Airport:

Trip Planner

Search our weather history database for the weather conditions in past years. The results will help you decide how hot, cold, wet, or windy it might be!

Date:

Astronomy

Jan. 15, 2013 Rise Set
Actual Time 7:26 AM EST 5:31 PM EST
Civil Twilight 6:58 AM EST 5:58 PM EST
Nautical Twilight 6:27 AM EST 6:29 PM EST
Astronomical Twilight 5:57 AM EST 7:00 PM EST
Moon 9:43 AM EST (1/15) 10:05 PM EST (1/15)
Length of Visible Light 10h 59m
Length of Day
10h 04m
Waxing Crescent, 19% of the Moon is Illuminated
Jan 15
Waxing Crescent
Jan 18
First Quarter
Jan 26
Full
Feb 3
Last Quarter
Feb 10
New

Hourly Weather History & Observations

Time (EST) Temp. Dew Point Humidity Pressure Visibility Wind Dir Wind Speed Gust Speed Precip Events Conditions
12:15 AM 65.3 °F 60.4 °F 84% 30.13 in 10.0 mi South 8.1 mph - N/A   Clear
12:35 AM 64.8 °F 60.3 °F 85% 30.13 in 10.0 mi South 6.9 mph - N/A   Clear
12:55 AM 64.4 °F 60.1 °F 86% 30.13 in 10.0 mi South 5.8 mph - N/A   Clear
1:15 AM 64.4 °F 60.1 °F 86% 30.13 in 10.0 mi South 4.6 mph - N/A   Clear
1:35 AM 63.9 °F 60.1 °F 87% 30.12 in 10.0 mi South 4.6 mph - N/A   Scattered Clouds
1:55 AM 63.7 °F 60.1 °F 88% 30.12 in 10.0 mi South 4.6 mph - N/A   Scattered Clouds
2:15 AM 63.5 °F 60.1 °F 89% 30.12 in 10.0 mi South 4.6 mph - N/A   Mostly Cloudy
2:35 AM 63.7 °F 60.3 °F 89% 30.12 in 10.0 mi South 3.5 mph - N/A   Overcast
2:55 AM 63.9 °F 60.3 °F 88% 30.12 in 10.0 mi South 4.6 mph - N/A   Overcast
3:15 AM 63.7 °F 60.3 °F 89% 30.12 in 10.0 mi South 5.8 mph - N/A   Overcast
3:35 AM 63.7 °F 60.3 °F 89% 30.11 in 10.0 mi South 4.6 mph - N/A   Overcast
4:15 AM 63.5 °F 60.1 °F 89% 30.11 in 10.0 mi Calm Calm - N/A   Overcast
4:55 AM 62.6 °F 60.1 °F 91% 30.10 in 10.0 mi Calm Calm - N/A   Overcast
5:35 AM 62.6 °F 60.3 °F 92% 30.10 in 10.0 mi ENE 3.5 mph - N/A Rain Light Rain
5:55 AM 62.6 °F 60.3 °F 92% 30.10 in 10.0 mi ENE 3.5 mph - N/A   Overcast
6:15 AM 60.3 °F 58.3 °F 93% 30.10 in 10.0 mi NE 8.1 mph - N/A   Overcast
6:35 AM 57.9 °F 56.1 °F 94% 30.10 in 10.0 mi NE 6.9 mph - N/A   Overcast
6:55 AM 56.7 °F 54.9 °F 94% 30.11 in 10.0 mi ENE 4.6 mph - N/A   Overcast
7:15 AM 56.5 °F 54.9 °F 94% 30.12 in 10.0 mi NE 3.5 mph - N/A   Overcast
7:35 AM 56.5 °F 54.9 °F 94% 30.13 in 10.0 mi NNE 4.6 mph - N/A   Overcast
7:55 AM 56.3 °F 54.7 °F 94% 30.14 in 10.0 mi NNE 6.9 mph - N/A   Overcast
8:15 AM 56.3 °F 54.5 °F 94% 30.16 in 10.0 mi NE 4.6 mph - N/A   Overcast
8:35 AM 55.8 °F 53.6 °F 92% 30.17 in 10.0 mi NNE 4.6 mph - N/A   Overcast
8:55 AM 55.4 °F 52.7 °F 91% 30.18 in 10.0 mi NNE 5.8 mph - N/A   Overcast
9:15 AM 55.6 °F 52.7 °F 90% 30.17 in 10.0 mi NE 4.6 mph - N/A   Overcast
9:35 AM 56.8 °F 52.9 °F 87% 30.18 in 10.0 mi Calm Calm - N/A   Mostly Cloudy
9:55 AM 57.4 °F 53.1 °F 85% 30.18 in 10.0 mi East 3.5 mph - N/A   Overcast
10:15 AM 58.3 °F 53.2 °F 83% 30.18 in 10.0 mi NE 5.8 mph - N/A   Overcast
10:35 AM 58.5 °F 53.4 °F 83% 30.18 in 10.0 mi ENE 3.5 mph - N/A   Overcast
10:55 AM 60.1 °F 54.0 °F 80% 30.17 in 10.0 mi NE 3.5 mph - N/A   Overcast
11:15 AM 60.8 °F 54.5 °F 80% 30.17 in 10.0 mi NNE 4.6 mph - N/A   Overcast
11:35 AM 60.4 °F 54.5 °F 81% 30.16 in 10.0 mi NE 4.6 mph - N/A   Overcast
11:55 AM 60.8 °F 54.0 °F 78% 30.14 in 10.0 mi NNE 6.9 mph - N/A   Scattered Clouds
12:15 PM 61.5 °F 54.0 °F 76% 30.14 in 10.0 mi NNE 8.1 mph - N/A   Scattered Clouds
12:35 PM 61.5 °F 54.1 °F 77% 30.13 in 10.0 mi North 8.1 mph - N/A   Mostly Cloudy
12:55 PM 61.7 °F 53.8 °F 75% 30.13 in 10.0 mi North 8.1 mph - N/A   Scattered Clouds
1:15 PM 60.3 °F 53.2 °F 78% 30.12 in 7.0 mi North 9.2 mph - N/A   Clear
1:35 PM 59.9 °F 53.1 °F 78% 30.11 in 7.0 mi NNE 9.2 mph - N/A   Scattered Clouds
1:55 PM 59.7 °F 53.1 °F 79% 30.10 in 7.0 mi NE 6.9 mph - N/A   Clear
2:15 PM 59.0 °F 52.7 °F 80% 30.10 in 7.0 mi NNE 10.4 mph - N/A   Scattered Clouds
2:35 PM 58.5 °F 52.7 °F 81% 30.10 in 5.0 mi NNE 8.1 mph - N/A   Haze
2:55 PM 58.1 °F 52.7 °F 82% 30.11 in 5.0 mi NNE 9.2 mph - N/A   Haze
3:15 PM 57.6 °F 52.2 °F 82% 30.10 in 5.0 mi NNE 8.1 mph - N/A   Haze
3:35 PM 56.8 °F 52.0 °F 84% 30.10 in 5.0 mi NE 6.9 mph - N/A   Haze
3:55 PM 56.3 °F 51.8 °F 85% 30.10 in 5.0 mi NE 6.9 mph - N/A   Scattered Clouds
4:15 PM 55.9 °F 51.4 °F 85% 30.10 in 5.0 mi NE 6.9 mph - N/A   Mostly Cloudy
4:35 PM 54.5 °F 51.3 °F 89% 30.12 in 5.0 mi NNE 6.9 mph - N/A   Overcast
4:55 PM 54.0 °F 50.9 °F 89% 30.12 in 5.0 mi NE 6.9 mph - N/A   Overcast
5:15 PM 53.1 °F 50.4 °F 91% 30.11 in 5.0 mi NNE 5.8 mph - N/A   Overcast
5:35 PM 52.3 °F 50.2 °F 92% 30.11 in 5.0 mi NNE 6.9 mph - N/A   Overcast
5:55 PM 52.2 °F 50.4 °F 94% 30.12 in 5.0 mi NNE 4.6 mph - N/A   Overcast
6:15 PM 52.5 °F 50.7 °F 94% 30.12 in 5.0 mi NE 3.5 mph - N/A   Overcast
6:35 PM 52.3 °F 50.9 °F 95% 30.13 in 5.0 mi NNE 5.8 mph - N/A   Overcast
6:55 PM 51.8 °F 50.9 °F 97% 30.13 in 4.0 mi ENE 4.6 mph - N/A   Overcast
7:15 PM 51.4 °F 50.5 °F 97% 30.12 in 4.0 mi ENE 5.8 mph - N/A   Overcast
7:35 PM 51.1 °F 50.4 °F 97% 30.12 in 3.0 mi East 6.9 mph - N/A   Overcast
7:55 PM 50.9 °F 50.4 °F 98% 30.11 in 3.0 mi East 4.6 mph - N/A   Overcast
8:15 PM 50.9 °F 50.4 °F 98% 30.10 in 1.5 mi ENE 3.5 mph - N/A   Overcast
8:35 PM 50.5 °F 50.5 °F 100% 30.10 in 1.0 mi Calm Calm - N/A   Overcast
8:55 PM 50.4 °F 50.4 °F 100% 30.08 in 0.8 mi East 5.8 mph - N/A   Overcast
9:15 PM 50.4 °F 50.4 °F 100% 30.08 in 0.5 mi East 6.9 mph - N/A Fog Fog
9:35 PM 50.4 °F 50.4 °F 100% 30.08 in 0.5 mi North 3.5 mph - N/A Fog Fog
9:55 PM 50.4 °F 50.4 °F 100% 30.09 in 0.5 mi Calm Calm - N/A Fog Fog
10:15 PM 50.4 °F 50.4 °F 100% 30.07 in 0.5 mi ENE 3.5 mph - N/A Fog Fog
10:35 PM 50.5 °F 50.5 °F 100% 30.06 in 0.5 mi East 4.6 mph - N/A Fog Fog
10:55 PM 50.5 °F 50.5 °F 100% 30.06 in 0.5 mi NNE 3.5 mph - N/A Fog Fog
11:15 PM 50.9 °F 50.9 °F 100% 30.05 in 0.5 mi East 3.5 mph - N/A Fog Fog
11:35 PM 50.9 °F 50.9 °F 100% 30.05 in 0.5 mi Calm Calm - N/A Fog Fog
11:55 PM 51.1 °F 51.1 °F 100% 30.05 in 0.5 mi Calm Calm - N/A Fog Fog